Погода в Булыга-Фадееве

Россия / Приморский край     44°02′16″N   133°52′57″E
темп.,
°C
ветер,
м/с
пор.,
м/с
влажн.,
%
обл.,
%
осадки,
мм/ч
давл.,
гПа
погр.,
м
9 августа, вт
вт901:00+15зюз11979 0.3 100411
04:00+14юз119816 0.3 100511
07:00+14зюз11974 0.1 100628
10:00+20зюз24550 0.1 1005996
13:00+23зсз35380 0.0 10041710
16:00+24зсз4634100 0.0 10031948
19:00+20з11690 0.0 100322
22:00+15ю227423 0.0 100529
10 августа, ср
ср1001:00+14ююв22792 0.0 100536
04:00+12ююв22870 0.0 100534
07:00+13ююв23870 0.0 100561
10:00+22зюз47500 0.0 10051251
13:00+25з47330 0.0 10032221
16:00+26з48325 0.0 10032601
19:00+21юз3105959 0.0 1003478
22:00+18ю226974 0.1 100550
11 августа, чт
чт1101:00+17ю2370100 0.0 100564
04:00+15ю2281100 0.0 100548
07:00+16ю2291100 0.0 100668
10:00+21юз476566 0.0 1005992
13:00+21юз3767100 0.0 10041182
16:00+22зюз396361 0.0 10031280
19:00+20зсз2479100 0.1 1003131
22:00+17юз1194100 0.4 100411
12 августа, пт
пт1201:00+16з1599100 5.2 1004351
04:00+15юв119881 5.8 100313
07:00+15ю1198100 0.0 100424
10:00+19зсз228376 0.2 1004620
13:00+23сз345534 0.3 10041613
16:00+20зсз2668100 0.4 1004288
19:00+19зсз12806 0.1 100551
22:00+15ююв1192100 0.1 100711
13 августа, сб
сб1301:00+14ю1193100 0.0 100710
04:00+13ю1196100 0.0 100816
07:00+14ююв1192100 0.0 100823
10:00+20зсз1162100 0.0 1008627
13:00+23сз2348100 0.0 10071762
16:00+21зюз1265100 0.0 1006245
19:00+20з23765 0.1 100763
22:00+14ююв119199 0.1 100911